User: anonymous   Login
Location: Brno
(49.2000°N, 16.6330°E)
Time: 09:03:45
(UTC+02:00)
Language:

BREEZE M DEB (TANK) - Orbit

View from above orbital plane
View from above orbital plane
View from above satellite
View from above satellite

Ground track
Ground track

The orbit data is extracted from the following two-line orbital elements,

1 28359U 04022B   18142.88624107 +.00000384 +00000-0 +59523-4 0  9990
2 28359 049.5163 066.7629 4664114 157.8815 231.6911 06.21276953306399
Epoch (UTC): 22 May 2018 21:16:11
Eccentricity: 0.4664114
inclination: 49.5163°
perigee height: 291 km
apogee height: 11950 km
right ascension of ascending node: 66.7629°
argument of perigee: 157.8815°
revolutions per day: 6.21276953
mean anomaly at epoch: 231.6911°
orbit number at epoch: 30639

The dashed part of the orbit path shows where the satellite is in the earth's shadow,  

DLR